Probability
0 0 0 0 0 0 0 0 0 0 0 0 0 0 0 0 0 0 0 0 0 0 0 0 0 0 0 0 0 0 0 0 0 0 0 0 0 0
0 0 0 0 0 0 0 0 0 0 0 0 0 0 0 0 0 0 0 0 0 0 0 0 0 0 0 0 0 0 0 0 0 0 0 0 0 0
0 0 0 0 0 0 0 0 0 0 0 0 0 0 0 0 0 0 0 0 0 0 0 0 0 0 0 0 0 0 0 0 0 0 0 0 0 0
0 0 0 0 0 0 0 0 0 0 0 0 0 0 0 0 0 0 0 0 0 0 0 0 0 0 0 0 0 0 0 0 0 0 0 0 0 0
0 0 0 0 0 0 0 0 0 0 0 0 0 0 0 0 0 0 0 0 0 0 0 0 0 0 0 0 0 0 0 0 0 0 0 0 0 0
0 0 0 0 0 0 0 0 0 0 0 0 0 0 0 0 0 0 0 0 0 0 0 0 0 0 0 0 0 0 0 0 0 0 0 0 0 0
0 0 0 0 0 0 0 0 0 0 0 0 0 0 0 0 0 0 0 0 0 0 0 0 0 0 0 0 0 0 0 0 0 0 0 0 0 0
0 0 0 0 0 0 0 0 0 0 0 0 0 0 0 0 0 0 0 0 0 0 0 0 0 0 0 0 0 0 0 0 0 0 0 0 0 0
0 0 0 0 0 0 0 0 0 0 0 0 0 0 0 0 0 0 0 0 0 0 0 0 0 0 0 0 0 0 0 0 0 0 0 0 0 0
0 0 0 0 0 0 0 0 0 0 0 0 0 0 0 0 0 0 0 0 0 0 0 0 0 0 0 0 0 0 0 0 0 0 0 0 0 0
0 0 0 0 0 0 0 0 0 0 0 0 0 0 0 0 0 0 0 0 0 0 0 0 0 0 0 0 0 0 0 0 0 0 0 0 0 0
0 0 0 0 0 0 0 0 0 0 0 0 0 0 0 0 0 0 0 0 0 0 0 0 0 0 0 0 0 0 0 0 0 0 0 0 0 0
0 0 0 0 0 0 0 0 0 0 0 0 0 0 0 0 0 0 0 0 0 0 0 0 0 0 0 0 0 0 0 0 0 0 0 0 0 0
0 0 0 0 0 0 0 0 0 0 0 0 0 0 0 0 0 0 0 0 0 0 0 0 0 0 0 0 0 0 0 0 0 0 0 0 0 0
0 0 0 0 0 0 0 0 0 0 0 0 0 0 0 0 0 0 0 0 0 0 0 0 0 0 0 0 0 0 0 0 0 0 0 0 0 0
0 0 0 0 0 0 0 0 0 0 0 0 0 0 0 0 0 0 0 0 0 0 0 0 0 0 0 0 0 0 0 0 0 0 0 0 0 0
0 0 0 0 0 0 0 0 0 0 0 0 0 0 0 0 0 0 0 0 0 0 0 0 0 0 0 0 0 0 0 0 0 0 0 0 0 0
0 0 0 0 0 0 0 0 0 0 0 0 0 0 0 0 0 0 0 0 0 0 0 0 0 0 0 0 0 0 0 0 0 0 0 0 0 0
0 0 0 0 0 0 0 0 0 0 0 0 0 0 0 0 0 0 0 0 0 0 0 0 0 0 0 0 0 0 0 0 0 0 0 0 0 0
0 0 0 0 0 0 0 0 0 0 0 0 0 0 0 0 0 0 0 0 0 0 0 0 0 0 0 0 0 0 0 0 0 0 0 0 0 0
0 0 0 0 0 0 0 0 0 0 0 0 0 0 0 0 0 0 0 0 0 0 0 0 0 0 0 0 0 0 0 0 0 0 0 0 0 0
0 0 0 0 0 0 0 0 0 0 0 0 0 0 0 0 0 0 0 0 0 0 0 0 0 0 0 0 0 0 0 0 0 0 0 0 0 0
0 0 0 0 0 0 0 0 0 0 0 0 0 0 0 0 0 0 0 0 0 0 0 0 0 0 0 0 0 0 0 0 0 0 0 0 0 0
Height
5725 5722 5718 5715 5711 5706 5702 5697 5693 5688 5684 5677 5671 5665 5659 5652 5646 5639 5633 5626 5619 5612 5605 5599 5592 5585 5578 5571 5563 5556 5549 5542 5535 5529 5523 5518 5513 5508
5717 5714 5710 5706 5702 5698 5693 5688 5683 5678 5673 5668 5661 5654 5648 5641 5634 5627 5620 5613 5605 5598 5590 5583 5575 5568 5560 5552 5544 5536 5529 5521 5514 5508 5502 5496 5490 5485
5708 5705 5701 5697 5693 5689 5684 5679 5673 5668 5663 5657 5650 5643 5636 5629 5622 5614 5606 5598 5591 5583 5575 5566 5558 5550 5541 5533 5525 5517 5509 5501 5494 5487 5480 5474 5468 5464
5700 5696 5693 5688 5684 5680 5675 5669 5664 5658 5652 5646 5639 5631 5624 5616 5608 5600 5592 5583 5575 5567 5558 5549 5540 5532 5523 5514 5506 5498 5490 5482 5474 5467 5460 5454 5448 5443
5691 5687 5684 5679 5675 5670 5665 5659 5653 5647 5640 5634 5627 5619 5611 5603 5595 5587 5577 5568 5559 5550 5541 5532 5523 5514 5505 5496 5487 5479 5471 5463 5455 5448 5441 5435 5429 5424
5682 5678 5675 5670 5666 5661 5655 5649 5643 5636 5629 5622 5615 5607 5599 5590 5581 5572 5563 5553 5544 5534 5525 5516 5506 5497 5488 5479 5470 5461 5453 5444 5437 5430 5424 5418 5413 5408
5673 5669 5666 5661 5656 5651 5645 5639 5632 5626 5618 5611 5603 5594 5585 5576 5567 5557 5548 5538 5528 5519 5510 5500 5490 5481 5471 5462 5453 5444 5435 5428 5421 5414 5408 5403 5398 5395
5664 5660 5656 5652 5647 5641 5635 5628 5622 5614 5606 5598 5590 5581 5572 5562 5552 5542 5533 5524 5515 5506 5496 5486 5475 5465 5455 5446 5437 5428 5420 5413 5406 5400 5395 5390 5386 5383
5655 5651 5647 5642 5637 5631 5625 5618 5610 5602 5594 5586 5577 5567 5558 5549 5540 5530 5519 5509 5499 5490 5481 5472 5460 5450 5440 5431 5422 5414 5407 5400 5394 5388 5383 5379 5375 5372
5646 5642 5637 5632 5627 5621 5614 5607 5599 5591 5582 5573 5564 5555 5545 5535 5526 5516 5506 5497 5487 5476 5466 5457 5447 5437 5427 5417 5409 5402 5395 5389 5383 5378 5373 5369 5365 5362
5636 5632 5627 5622 5617 5611 5604 5596 5588 5579 5569 5560 5551 5542 5533 5523 5513 5504 5494 5484 5475 5464 5453 5443 5434 5424 5416 5407 5399 5392 5385 5379 5374 5369 5364 5360 5357 5354
5627 5622 5618 5612 5606 5599 5592 5584 5576 5567 5558 5549 5540 5531 5521 5512 5502 5492 5481 5471 5461 5452 5441 5431 5421 5413 5406 5398 5389 5383 5377 5372 5367 5362 5357 5353 5350 5347
5617 5612 5607 5601 5595 5588 5581 5573 5564 5555 5547 5538 5529 5520 5510 5501 5491 5480 5469 5459 5448 5438 5429 5420 5412 5403 5395 5389 5382 5376 5370 5366 5361 5356 5352 5348 5345 5342
5607 5602 5597 5591 5584 5577 5569 5561 5553 5544 5535 5527 5518 5509 5499 5490 5480 5469 5459 5448 5438 5429 5419 5411 5403 5396 5388 5382 5376 5371 5365 5360 5356 5351 5348 5344 5341 5338
5597 5592 5586 5580 5573 5566 5558 5550 5542 5533 5524 5516 5507 5498 5488 5479 5468 5458 5448 5439 5429 5420 5412 5404 5397 5389 5383 5377 5371 5366 5361 5356 5351 5348 5344 5341 5338 5335
5587 5581 5576 5569 5562 5555 5547 5539 5531 5522 5513 5505 5496 5486 5477 5467 5458 5448 5439 5430 5421 5413 5405 5398 5391 5384 5378 5372 5366 5361 5356 5352 5348 5344 5341 5338 5335 5332
5577 5571 5565 5559 5552 5544 5536 5528 5520 5511 5503 5494 5484 5475 5466 5456 5447 5438 5430 5421 5414 5406 5399 5392 5385 5379 5373 5367 5362 5357 5352 5348 5345 5342 5338 5335 5332 5330
5567 5561 5555 5548 5541 5533 5526 5517 5509 5500 5491 5482 5473 5464 5455 5446 5437 5429 5421 5414 5406 5399 5392 5386 5380 5374 5368 5362 5357 5353 5349 5345 5342 5339 5336 5333 5330 5328
5557 5551 5545 5538 5530 5523 5515 5506 5498 5489 5480 5472 5463 5454 5445 5436 5428 5421 5413 5406 5399 5392 5386 5380 5374 5368 5363 5358 5354 5350 5346 5343 5340 5337 5334 5332 5329 5326
5547 5541 5534 5527 5519 5512 5504 5495 5487 5478 5469 5460 5452 5443 5435 5428 5420 5413 5405 5398 5392 5385 5379 5374 5369 5364 5359 5354 5350 5347 5344 5341 5338 5335 5332 5330 5328 5325
5536 5530 5523 5516 5508 5501 5493 5484 5476 5467 5458 5450 5441 5434 5426 5419 5412 5405 5399 5392 5385 5379 5373 5369 5364 5359 5355 5351 5348 5345 5342 5339 5336 5333 5331 5329 5326 5324
5526 5519 5512 5505 5497 5490 5482 5473 5465 5456 5447 5439 5432 5425 5418 5412 5405 5398 5392 5385 5379 5373 5368 5364 5360 5356 5352 5349 5346 5343 5340 5338 5335 5332 5330 5328 5325 5323
5515 5509 5501 5494 5487 5479 5471 5462 5454 5446 5438 5431 5424 5417 5411 5405 5398 5392 5386 5380 5374 5369 5364 5360 5356 5353 5350 5348 5345 5342 5339 5336 5334 5332 5329 5327 5325 5323
Wind_Speed
38 39 39 40 41 41 43 44 45 45 45 46 47 49 51 51 52 54 55 56 57 57 58 59 60 61 63 64 66 67 67 67 67 67 67 68 68 68
38 39 40 41 41 42 43 44 45 46 47 48 49 51 52 54 55 56 57 58 58 59 60 61 63 64 65 67 67 67 67 67 67 68 68 68 67 66
39 40 41 41 42 43 44 45 46 47 48 49 51 53 54 55 56 57 58 59 60 61 62 64 65 66 67 67 66 66 66 66 66 66 66 64 64 63
39 40 41 41 42 44 45 46 47 48 50 51 53 54 55 57 58 59 60 61 62 63 64 65 66 67 67 66 66 66 65 65 65 64 63 62 60 60
39 40 41 42 43 44 45 46 48 50 52 53 54 56 57 59 60 61 62 63 64 65 65 65 66 66 65 65 66 65 65 64 62 61 60 58 57 55
39 40 41 42 43 44 46 47 49 51 53 54 56 57 59 61 62 63 63 64 64 64 64 65 65 65 65 65 65 64 63 61 59 58 57 54 51 48
39 40 41 42 43 45 47 49 51 53 54 56 57 59 61 62 63 63 64 64 63 64 64 64 64 65 65 64 64 62 59 57 56 54 51 47 45 43
39 40 41 43 44 46 48 50 52 54 56 57 59 60 62 63 63 63 64 63 62 62 62 62 64 64 63 63 61 58 55 53 51 48 45 42 40 39
40 41 42 43 45 47 49 51 53 55 57 59 60 61 62 62 62 62 61 61 61 61 62 62 62 62 61 59 56 53 50 48 45 42 40 38 37 36
40 41 43 44 46 48 50 52 54 56 58 59 60 61 61 61 61 60 60 60 61 62 62 62 61 60 57 55 51 49 46 43 41 39 37 35 33 31
40 42 43 44 47 49 50 52 55 57 58 58 58 59 59 59 60 60 60 61 62 62 62 61 58 55 53 50 48 44 41 38 36 34 32 30 28 26
40 42 43 45 47 49 51 53 55 56 56 56 57 58 58 58 59 61 61 61 61 60 59 56 53 50 47 46 43 39 36 33 32 30 29 26 24 22
40 42 44 46 48 50 52 53 54 55 55 56 57 57 57 58 60 60 60 60 59 57 54 51 48 46 44 41 37 34 31 30 29 27 25 23 21 20
40 42 44 46 48 50 52 53 54 54 55 56 56 57 57 58 59 59 58 57 55 52 49 47 45 42 40 36 33 31 30 29 27 24 22 20 19 19
41 43 45 47 49 51 52 53 53 54 55 55 56 57 58 58 58 57 55 53 51 48 46 44 42 39 36 33 31 30 28 27 24 21 20 19 18 17
41 43 45 47 49 51 51 52 53 54 54 55 56 57 58 57 56 54 52 49 47 45 43 41 39 36 33 31 30 29 27 24 21 19 18 18 17 15
41 43 46 48 50 50 51 52 53 54 54 55 56 57 56 55 53 50 48 46 45 43 41 39 36 33 32 31 29 27 24 21 19 17 17 17 15 13
42 44 46 48 49 50 52 52 53 53 54 55 56 56 54 52 49 47 45 44 42 41 39 36 34 33 31 29 27 23 20 18 17 16 16 15 14 12
43 44 46 48 49 50 52 52 53 53 54 55 55 54 51 48 46 45 43 42 40 38 36 34 33 31 29 26 23 20 18 17 16 15 14 13 13 12
43 45 47 48 49 50 52 52 53 54 54 54 53 51 48 45 44 42 41 40 38 36 34 32 30 28 25 22 19 18 16 16 15 14 13 13 13 12
44 46 48 48 49 51 52 52 53 54 53 52 49 47 44 42 41 40 39 38 37 34 31 29 27 25 22 19 17 16 15 15 14 13 13 12 12 11
45 47 48 48 49 51 52 52 53 52 50 48 46 43 41 40 39 38 37 36 34 31 29 26 24 20 18 17 16 15 15 14 13 12 11 11 10 9
45 47 48 48 49 51 51 51 51 49 47 45 42 40 39 38 37 36 35 33 30 28 26 22 19 16 15 15 14 14 13 13 11 11 10 9 9 8
Wind_Direction
294 295 296 298 298 299 301 303 304 305 306 306 306 306 307 307 306 306 306 305 304 303 303 302 301 301 300 299 299 298 296 295 293 291 290 289 287 284
293 294 296 297 298 300 301 302 303 305 306 306 306 306 306 306 306 306 306 306 305 303 303 302 302 301 301 301 300 299 297 296 295 293 291 289 287 284
293 294 296 297 298 300 301 302 303 304 305 306 306 307 307 307 307 307 307 306 305 304 304 303 303 303 303 302 301 300 299 298 296 294 293 291 288 285
292 294 296 296 298 300 301 303 304 305 306 306 307 307 308 308 308 308 307 306 306 305 305 304 304 304 304 303 302 302 301 300 298 297 295 292 289 286
291 293 295 296 298 300 302 303 304 305 306 307 307 308 308 308 308 308 308 307 307 306 306 306 306 306 305 304 304 303 302 300 299 298 296 294 291 288
291 293 295 297 299 301 303 303 304 305 306 307 308 308 308 308 309 308 308 308 307 308 308 308 308 307 306 306 305 305 303 301 300 299 297 295 293 289
291 294 296 297 300 302 303 304 305 306 306 307 308 308 309 309 309 309 309 309 309 309 309 309 308 308 307 307 307 306 305 303 301 300 298 296 293 290
291 294 296 298 300 302 304 305 306 307 307 308 308 309 309 310 310 311 311 311 310 310 310 310 309 309 309 308 308 308 306 305 303 301 299 297 294 291
291 294 297 299 301 303 305 305 306 308 308 309 309 309 310 311 312 312 313 313 313 312 312 312 311 311 311 311 311 310 309 307 305 302 301 298 296 293
293 295 298 300 303 304 305 306 308 308 309 309 309 311 312 312 313 314 314 314 314 313 313 313 313 313 312 312 312 312 310 308 306 305 303 301 298 295
294 297 299 301 303 304 306 307 308 309 309 310 311 312 313 313 314 315 315 315 315 314 314 314 314 314 314 314 314 313 311 310 310 309 307 305 301 296
296 298 301 303 304 305 307 308 309 310 310 311 312 313 314 314 315 315 316 316 316 316 316 316 316 316 316 316 316 315 313 313 313 312 311 308 304 300
297 300 302 304 305 307 309 310 310 311 311 312 313 315 315 315 316 316 317 317 317 318 318 318 318 319 319 319 318 317 316 316 316 315 314 313 309 305
298 301 303 305 307 308 309 311 311 312 312 313 314 315 315 316 317 317 317 318 319 319 320 320 321 321 321 321 320 319 318 318 318 317 316 316 314 310
300 303 305 307 308 309 310 311 312 312 313 314 315 316 316 316 317 317 318 319 319 320 320 321 322 323 322 322 321 320 320 320 319 318 318 319 316 313
301 304 306 308 309 310 311 312 313 313 314 315 316 316 316 317 317 318 319 320 320 320 321 322 323 323 323 322 322 321 321 320 319 318 319 321 320 316
303 305 308 309 311 311 312 313 313 314 315 315 316 317 317 317 317 318 319 319 320 320 321 322 323 323 322 322 322 322 321 321 320 320 321 323 323 318
304 307 309 311 312 312 313 314 314 315 315 316 317 317 317 317 317 318 319 319 320 320 321 322 322 323 322 323 323 323 322 322 322 323 324 324 324 322
306 309 310 312 312 313 314 315 315 315 315 316 317 317 317 317 317 318 319 319 319 319 320 321 321 322 322 323 324 324 324 324 325 326 326 325 327 325
308 310 312 313 314 314 315 315 315 315 316 316 317 317 317 317 318 319 319 319 319 319 319 320 321 322 323 323 324 325 326 326 326 327 327 328 329 328
310 312 313 314 314 314 315 315 316 316 317 317 317 317 317 318 318 319 319 319 319 319 320 320 321 322 323 323 325 326 326 327 328 327 327 328 330 330
311 313 314 314 314 315 316 316 317 318 318 318 318 318 317 318 319 319 319 320 320 320 320 320 321 322 323 324 326 327 328 329 330 329 331 333 334 334
312 314 314 314 315 316 317 318 318 319 319 319 318 318 318 318 319 320 320 320 320 321 321 321 321 322 324 325 327 329 330 332 333 334 336 339 341 343